EHI
0 0 0 0 0 0 0 0 0 0 0 0 0 0 0 0 0 0 0 0 0 0 0 0 0 0 0 0 0 0 0 0 0 0 0 0 0 0 0 0 0 0 0 0
0 0 0 0 0 0 0 0 0 0 0 0 0 0 0 0 0 0 0 0 0 0 0 0 0 0 0 0 0 0 0 0 0 0 0 0 0 0 0 0 0 0 0 0
0 0 0 0 0 0 0 0 0 0 0 0 0 0 0 0 0 0 0 0 0 0 0 0 0 0 0 0 0 0 0 0 0 0 0 0 0 0 0 0 0 0 0 0
0 0 0 0 0 0 0 0 0 0 0 0 0 0 0 0 0 0 0 0 0 0 0 0 0 0 0 0 0 0 0 0 0 0 0 0 0 0 0 0 0 0 0 0
0 0 0 0 0 0 0 0 0 0 0 0 0 0 0 0 0 0 0 0 0 0 0 0 0 0 0 0 0 0 0 0 0 0 0 0 0 0 0 0 0 0 0 0
0 0 0 0 0 0 0 0 0 0 0 0 0 0 0 0 0 0 0 0 0 0 0 0 0 0 0 0 0 0 0 0 0 0 0 0 0 0 0 0 0 0 0 0
0 0 0 0 0 0 0 0 0 0 0 0 0 0 0 0 0 0 0 0 0 0 0 0 0 0 0 0 0 0 0 0 0 0 0 0 0 0 0 0 0 0 0 0
0 0 0 0 0 0 0 0 0 0 0 0 0 0 0 0 0 0 0 0 0 0 0 0 0 0 0 0 0 0 0 0 0 0 0 0 0 0 0 0 0 0 0 0
0 0 0 0 0 0 0 0 0 0 0 0 0 0 0 0 0 0 0 0 0 0 0 0 0 0 0 0 0 0 0 0 0 0 0 0 0 0 0 0 0 0 0 0
0 0 0 0 0 0 0 0 0 0 0 0 0 0 0 0 0 0 0 0 0 0 0 0 0 0 0 0 0 0 0 0 0 0 0 0 0 0 0 0 0 0 0 0
0 0 0 0 0 0 0 0 0 0 0 0 0 0 0 0 0 0 0 0 0 0 0 0 0 0 0 0 0 0 0 0 0 0 0 0 0 0 0 0 0 0 0 0
0 0 0 0 0 0 0 0 0 0 0 0 0 0 0 0 0 0 0 0 0 0 0 0 0 0 0 0 0 0 0 0 0 0 0 0 0 0 0 0 0 0 0 0
0 0 0 0 0 0 0 0 0 0 0 0 0 0 0 0 0 0 0 0 0 0 0 0 0 0 0 0 0 0 0 0 0 0 0 0 0 0 0 0 0 0 0 0
0 0 0 0 0 0 0 0 0 0 0 0 0 0 0 0 0 0 0 0 0 0 0 0 0 0 0 0 0 0 0 0 0 0 0 0 0 0 0 0 0 0 0 0
0 0 0 0 0 0 0 0 0 0 0 0 0 0 0 0 0 0 0 0 0 0 0 0 0 0 0 0 0 0 0 0 0 0 0 0 0 0 0 0 0 0 0 0
0 0 0 0 0 0 0 0 0 0 0 0 0 0 0 0 0 0 0 0 0 0 0 0 0 0 0 0 0 0 0 0 0 0 0 0 0 0 0 0 0 0 0 0
0 0 0 0 0 0 0 0 0 0 0 0 0 0 0 0 0 0 0 0 0 0 0 0 0 0 0 0 0 0 0 0 0 0 0 0 0 0 0 0 0 0 0 0
0 0 0 0 0 0 0 0 0 0 0 0 0 0 0 0 0 0 0 0 0 0 0 0 0 0 0 0 0 0 0 0 0 0 0 0 0 0 0 0 0 0 0 0
0 0 0 0 0 0 0 0 0 0 0 0 0 0 0 0 0 0 0 0 0 0 0 0 0 0 0 0 0 0 0 0 0 0 0 0 0 0 0 0 0 0 0 0
0 0 0 0 0 0 0 0 0 0 0 0 0 0 0 0 0 0 0 0 0 0 0 0 0 0 0 0 0 0 0 0 0 0 0 0 0 0 0 0 0 0 0 0
0 0 0 0 0 0 0 0 0 0 0 0 0 0 0 0 0 0 0 0 0 0 0 0 0 0 0 0 0 0 0 0 0 0 0 0 0 0 0 0 0 0 0 0
0 0 0 0 0 0 0 0 0 0 0 0 0 0 0 0 0 0 0 0 0 0 0 0 0 0 0 0 0 0 0 0 0 0 0 0 0 0 0 0 0 0 0 0
0 0 0 0 0 0 0 0 0 0 0 0 0 0 0 0 0 0 0 0 0 0 0 0 0 0 0 0 0 0 0 0 0 0 0 0 0 0 0 0 0 0 0 0
0 0 0 0 0 0 0 0 0 0 0 0 0 0 0 0 0 0 0 0 0 0 0 0 0 0 0 0 0 0 0 0 0 0 0 0 0 0 0 0 0 0 0 0
0 0 0 0 0 0 0 0 0 0 0 0 0 0 0 0 0 0 0 0 0 0 0 0 0 0 0 0 0 0 0 0 0 0 0 0 0 0 0 0 0 0 0 0
0 0 0 0 0 0 0 0 0 0 0 0 0 0 0 0 0 0 0 0 0 0 0 0 0 0 0 0 0 0 0 0 0 0 0 0 0 0 0 0 0 0 0 0
0 0 0 0 0 0 0 0 0 0 0 0 0 0 0 0 0 0 0 0 0 0 0 0 0 0 0 0 0 0 0 0 0 0 0 0 0 0 0 0 0 0 0 0
Wind_Speed
3 2 7 8 8 9 8 4 2 2 1 3 5 4 6 7 9 9 7 7 8 8 8 9 9 9 9 10 10 10 9 10 11 11 10 9 9 9 10 10 11 10 9 8
5 5 9 9 10 8 6 5 3 2 1 3 5 5 7 9 11 9 9 10 11 11 11 11 11 11 11 11 11 10 10 11 11 10 9 9 9 9 9 9 10 9 9 9
5 6 3 6 5 5 4 4 3 2 3 6 7 8 8 10 9 9 12 13 13 12 12 12 12 12 12 12 11 10 11 11 11 10 10 10 9 8 8 9 9 9 10 10
2 6 3 3 1 4 4 4 3 1 5 6 7 9 8 9 9 11 13 13 13 12 12 12 12 12 12 12 11 11 11 11 10 9 9 9 8 8 8 7 7 8 9 10
2 2 2 0 2 2 1 2 2 3 6 7 8 6 6 9 9 12 14 14 13 12 14 12 12 13 13 13 12 11 11 11 9 9 9 8 9 9 8 7 7 7 6 8
3 1 3 2 3 3 1 2 2 5 7 8 8 8 8 9 11 12 12 11 11 11 11 12 13 13 14 14 14 14 13 12 11 9 9 9 9 8 7 7 7 7 7 8
2 2 3 3 4 4 3 7 6 5 6 6 6 8 11 13 11 11 11 11 11 12 12 13 14 13 14 15 15 14 13 13 12 11 10 9 9 8 7 7 6 7 8 7
1 1 5 3 3 3 4 5 5 5 5 7 8 10 10 11 11 12 11 12 12 12 13 13 14 14 16 16 15 14 13 13 12 10 10 10 7 7 6 6 6 7 6 6
6 6 5 2 4 4 4 3 4 5 7 7 8 9 10 9 10 11 12 13 13 15 16 16 15 14 17 17 15 14 13 12 11 10 9 8 7 7 6 5 5 5 5 5
2 2 4 3 2 1 1 2 4 5 6 7 7 9 10 9 10 12 12 13 14 17 18 18 17 16 15 16 15 13 13 11 9 8 7 7 6 6 6 5 5 5 5 5
2 1 1 2 2 2 2 3 5 6 6 7 8 8 8 9 11 11 12 13 14 16 17 18 18 17 16 14 13 12 11 9 7 6 6 6 5 5 6 6 6 6 5 5
5 5 4 4 3 2 3 4 5 6 7 7 6 7 8 10 10 11 14 14 15 16 17 17 17 17 15 13 12 10 9 7 5 4 4 4 4 4 5 6 8 11 9 6
6 6 5 3 1 2 2 4 5 5 6 7 7 6 8 9 10 13 14 16 16 17 17 16 16 16 15 13 11 10 8 7 4 4 3 3 3 2 2 2 1 2 4 6
6 5 2 1 0 1 3 4 5 6 6 6 6 7 8 9 12 14 15 15 16 16 15 15 15 15 14 13 11 10 8 7 6 3 3 3 2 2 2 2 1 1 2 2
5 5 5 3 2 3 3 4 5 6 6 7 6 7 10 11 13 14 14 14 15 15 14 14 15 15 15 12 11 9 7 5 4 3 2 2 2 1 1 2 2 2 2 3
6 5 5 3 2 2 3 4 4 6 6 6 6 8 10 11 12 13 13 14 15 16 15 14 15 15 14 12 11 8 6 10 7 3 3 2 1 1 1 2 3 3 3 3
6 4 3 2 1 1 2 3 3 5 5 6 7 8 9 11 12 14 15 15 14 13 12 13 15 15 13 11 10 7 6 6 8 4 3 2 1 1 1 2 3 3 3 4
7 6 7 5 3 1 2 3 4 5 4 5 7 8 9 10 12 13 14 15 14 13 13 14 16 15 13 11 9 7 5 4 3 3 2 2 1 1 1 2 3 4 3 3
7 8 7 6 4 2 0 2 4 4 4 5 6 7 8 9 10 11 12 13 13 14 16 17 20 14 12 13 13 6 6 4 3 3 2 3 2 2 1 2 3 4 4 3
7 7 7 5 4 2 0 3 3 3 4 5 6 7 8 9 10 11 12 10 8 10 15 17 15 12 12 12 14 7 6 4 3 3 2 2 2 2 2 2 3 3 3 3
8 8 7 5 3 1 2 3 2 3 4 5 5 6 7 8 8 9 10 10 12 15 17 16 12 11 11 11 11 6 5 4 3 3 2 2 2 2 2 2 3 3 3 3
7 7 7 5 3 1 3 2 2 2 3 5 5 6 7 8 9 8 7 7 11 17 14 10 11 16 17 13 6 6 6 5 3 3 2 2 2 1 2 2 3 3 3 3
7 6 6 5 4 3 2 1 1 1 2 3 4 5 6 6 6 8 10 9 10 17 13 10 18 23 19 9 7 7 6 5 4 3 3 2 2 2 2 3 3 3 3 3
7 7 6 5 4 2 1 2 1 0 1 2 3 4 4 4 5 5 6 11 14 16 11 13 20 22 16 8 8 8 7 6 5 4 3 2 2 2 2 2 2 3 3 3
8 7 6 5 4 3 3 2 1 1 2 2 4 4 3 3 4 7 8 10 14 14 10 13 18 18 12 9 9 9 8 8 7 5 4 3 1 1 1 1 1 2 2 2
7 6 6 6 5 4 4 3 2 1 1 1 3 3 3 4 5 6 7 9 12 13 10 9 11 12 10 10 10 10 9 9 9 7 6 4 3 2 1 1 1 2 2 2
7 5 4 3 4 5 4 3 3 2 2 2 1 3 4 5 5 7 8 8 9 9 9 9 9 9 10 10 10 10 9 9 9 9 8 6 5 4 3 3 2 2 2 2
Wind_Direction
298 5 76 71 56 61 71 77 87 326 102 341 335 328 318 313 311 311 312 310 302 291 279 272 267 261 254 249 246 242 239 238 238 240 240 242 244 246 247 247 248 246 246 249
357 70 93 68 45 44 47 37 21 45 82 310 311 320 319 316 315 311 306 305 301 294 287 281 274 269 263 256 252 244 238 236 234 232 233 234 236 240 243 246 248 245 242 242
331 323 71 28 22 45 39 33 62 52 295 304 316 316 306 305 304 299 302 303 300 295 287 284 281 278 275 270 263 252 242 238 232 227 226 228 232 234 235 240 242 242 242 238
353 16 14 242 85 77 99 100 71 351 291 295 293 289 284 290 294 298 299 299 297 294 293 292 290 292 290 287 279 268 259 251 242 231 227 226 226 229 233 234 233 236 237 234
76 352 241 290 10 11 287 190 56 338 319 312 301 301 287 278 286 291 294 297 299 301 304 306 307 307 307 302 296 290 283 270 257 245 238 231 226 228 229 230 233 232 230 229
67 338 265 246 313 300 332 258 325 351 325 313 329 329 297 295 297 296 298 302 308 311 311 311 310 310 307 302 297 291 286 280 270 258 250 243 237 232 228 226 231 234 234 227
53 285 276 284 318 39 60 276 296 306 305 308 305 277 288 304 307 308 309 312 313 313 313 311 312 311 306 302 297 294 291 285 274 261 251 246 242 236 231 230 231 233 235 234
98 332 273 314 49 81 237 255 283 292 294 295 289 289 298 306 311 317 318 317 319 318 316 315 314 312 307 303 299 296 292 285 279 270 263 263 246 237 230 224 226 232 232 239
178 208 222 126 140 193 212 258 280 289 296 297 303 304 311 313 318 318 318 320 322 322 320 319 316 312 307 304 302 298 293 286 278 271 263 257 250 243 235 223 222 225 220 230
132 157 161 146 151 221 265 299 301 302 304 312 311 313 318 319 320 322 324 324 327 327 325 323 321 316 307 306 306 301 296 292 285 275 267 258 249 239 231 223 218 217 216 224
161 175 163 337 338 344 3 348 331 322 315 319 320 320 321 322 324 325 327 329 329 327 324 322 321 319 316 314 313 309 305 298 291 281 274 266 254 240 229 221 209 204 210 207
209 218 190 251 278 22 21 342 327 327 325 325 326 322 325 324 324 326 329 330 328 326 324 323 323 322 321 319 317 314 311 304 294 287 281 274 270 272 252 238 230 221 218 209
171 179 179 217 39 31 355 334 332 334 329 327 326 326 327 324 325 329 330 331 329 326 323 322 323 324 325 325 323 319 313 308 300 290 282 278 269 259 274 317 329 218 221 220
159 150 142 146 183 356 357 343 342 337 329 325 324 327 328 326 329 332 332 329 327 324 323 325 326 325 326 328 328 326 322 318 314 289 280 276 268 247 209 178 135 77 62 84
162 149 160 153 86 23 3 352 347 334 326 328 330 329 330 332 331 330 328 329 328 327 328 329 330 328 328 330 331 329 328 323 319 313 302 286 274 252 182 163 150 130 108 79
149 130 121 103 64 17 359 351 340 325 325 330 330 327 327 326 326 328 331 334 333 331 330 332 332 329 329 330 333 331 329 336 343 338 340 347 3 33 107 138 141 137 144 147
146 155 144 129 98 25 353 337 328 320 325 329 323 323 325 328 333 335 335 333 329 325 328 334 332 329 330 332 334 331 328 334 351 358 355 357 6 26 105 133 142 142 152 168
157 161 157 150 149 101 351 341 327 323 318 313 320 326 329 331 332 332 331 330 332 335 340 338 333 330 329 332 335 329 330 332 343 349 352 360 4 24 94 130 140 134 129 144
144 142 139 132 130 119 28 314 309 309 309 317 326 324 320 322 326 329 331 333 339 342 340 334 329 331 329 330 336 327 330 336 343 349 357 16 31 39 66 103 110 110 122 127
144 142 137 129 118 118 302 300 309 310 306 317 326 326 327 330 332 334 333 331 337 337 331 327 328 331 329 327 331 325 329 336 341 344 358 14 25 36 54 94 109 112 116 121
152 150 144 137 133 136 294 303 304 304 310 325 330 326 323 323 327 333 337 338 338 338 334 327 332 333 330 325 323 323 330 338 345 350 4 18 25 32 55 89 103 112 117 123
160 157 154 153 160 227 281 282 272 301 326 334 334 333 335 335 337 335 330 328 329 334 334 331 337 334 332 330 333 336 340 346 352 354 4 21 37 49 69 93 107 115 117 123
168 167 164 169 183 217 270 270 271 309 333 337 340 342 340 334 336 339 337 335 335 334 334 334 336 337 341 347 350 349 350 352 355 356 0 12 35 57 75 90 102 112 118 123
174 175 176 182 175 175 224 248 263 304 353 350 348 348 347 341 335 330 321 326 335 335 336 335 340 345 351 360 1 1 360 358 356 352 354 4 22 43 63 82 92 101 113 124
179 178 177 175 181 193 198 189 108 48 33 5 353 355 357 351 337 333 335 338 341 343 342 342 346 350 358 360 1 1 0 2 359 357 359 359 5 23 48 93 110 115 121 132
183 187 187 188 182 175 171 154 141 138 87 20 353 350 351 347 343 344 343 343 345 345 347 349 351 354 359 359 1 3 2 1 3 3 359 360 1 8 44 113 129 125 131 140
191 189 177 166 163 161 156 151 150 150 138 107 32 360 359 354 353 354 351 350 350 350 351 353 354 357 359 360 0 4 5 4 3 360 357 0 5 13 26 51 72 88 108 125